STARLINK-37795, 69311

Orbit data source: Space-Track

STARLINK-37795, 69311 is a payload satellite owned by SpaceX/Seattle (US) in SSO that was launched on Sat, 30 May 2026 UTC via an FALCON 9 launch vehicle from the Air Force Western Test Range (AFWTR). Payload-class satellites include a variety of spacecraft equipped with specific instruments for various scientific and technological missions. These include communications satellites like Starlink; space stations such as the ISS; scientific satellites like the Hubble; Earth observation satellites from companies like Planet Labs, Umbra, and HawkEye 360; GPS; miniature CubeSats for education and research; and military/defense satellites.

Loading next visibility...
Identifier
69311, 2026-119R
Orbit
SSO
Country
Flag of USUS
Related business
Manufacturer
SpaceX/Seattle
Mission
Operational Commercial Communications
Bus & Motor
STARLINK V2MO, Unknown motor
Mass
575 kg wet, ~530 kg dry
Launch date (UTC)
2026-05-30 (4 months ago)
Launch vehicle
FALCON 9
Launch site
Air Force Western Test Range (AFWTR)
Object type
Payload
Rocket body
Debris
Shape & HBR
Box + 1 Pan, 17.7 m
Radar Cross Section
41.120 m², Large (>1 m²)

Expand to show TLE details & history
Last TLE update: 1 day ago

TLE from 1 day ago
0 STARLINK-37795
1 69311U 26119R   26263.22874117  .00016487  00000-0  51157-3 0  9998
2 69311  97.2844 287.9945 0002619 131.1188 229.0281 15.33462862 18622
Epoch: 2026-09-20T05:29Z
TLE epoch observation values (Epoch: 2026-09-20T05:29:23.237Z)
Latitude
-0.00002°
Longitude
-153.47825°
Altitude
469.778 km
Speed
7.631 km/s
True Right ascension
19h 11m 58s
True Declination
0° 00' 00"
Sunlit
Object was in daylight at epoch
Visualization orbit readout
Latitude
Unknown
Longitude
Unknown
Altitude
Unknown
Speed
Unknown
Apparent Right ascension
Unknown
Apparent Declination
Unknown
Sunlit
N/A
Visualization observer readout
Local Sidereal Time
23:12:23
Azimuth
Unknown
Elevation
Unknown
Doppler factor
Unknown
Orbital elements
Apogee altitude
464.224 km
Perigee altitude
460.641 km
Semi-major axis
6,840.57 km
Eccentricity
0.00026
Inclination
97.2844°
RAAN
287.9945°
Arg. of periapsis
131.1188°
True anomaly
229.00545°
Mean anomaly
229.0281°
Eccentric anomaly
229.01677°
Mean motion
3.83623 °/min
Orbital period
93.84 mins
BSTAR
0.00051157
Loading maneuver chart data...
Computing Atmospheric mass density...
Loading historical data...
Loading historical data...
Loading historical data...
Loading historical data...
Loading historical data...
Loading historical data...
Loading historical data...

Documentation

Showing up to 5 results
|